Location: Newark
(43.6583°N, 1.6617°E)
Time: 06:30:01
(UTC+00:00)

Courier 1B - Pass Details

Date: 28 August 2019
Orbit: 962 x 1209 km, 28.3° (Epoch: 21 September)

Event Time Altitude Azimuth Distance (km) Brightness Sun altitude
Rises 19:28:24 0° 251° (WSW) 3,773 11.4 -9.7°
Reaches altitude 10° 19:32:53 10° 225° (SW) 2,767 10.2 -10.5°
Maximum altitude 19:35:40 13° 200° (SSW) 2,530 9.6 -10.9°
Drops below altitude 10° 19:38:25 10° 175° (S) 2,715 9.5 -11.4°
Enters shadow 19:40:50 - 158° (SSE) 3,165 9.7 -11.8°
Sets 19:42:43 0° 148° (SSE) 3,635 - -12.1°
